HULIANGWANG DIGUI-10

导读

HULIANWANG DIGUI-10即卫星互联网低轨01组10星,由中国于2024年12月16日发射,是我国低轨卫星互联网星座组网建设的重要一环。该卫星运行于近地轨道,依托低轨信号损耗小的优势,可提供广域互联通信服务,助力实现全球无缝网络覆盖,填补地面网络在海洋、偏远区域的覆盖空白,推动中国卫星互联网产业加速落地。

Basic Information
目录编号:
62332
目录名称:
HULIANWANG DIGUI-10
国际标识:
2024-240K
轨道中心:
EARTH
卫星名称:
HULIANWANG DIGUI-10
卫星全名:
HULIANGWANG DIGUI-10
卫星状态:
在轨 (已飞行638 天)
发射日期:
2024-12-16 UTC
国别 :
中国 (CN)
星等 :
--
This satellite is enrolled in the Space Conjunction Data Service (SCDS) and the current flight risk assessment level is: No High Risk
Orbit Information
数据来源 国际轨道数据 AOE轨道数据
星历时间 2026-09-15T22:17:50+0800
8小时前
查看轨道信息
2026-09-15T23:00:00+0800
7小时前
查看轨道信息
半长轴 7546.047km 7546.051km
偏心率 0.0001703 0.0001627
轨道倾角 86.503° 86.502°
近地点辐角 87.005° 91.339°
升交点赤经 312.958° 312.948°
平近点角 273.128° 48.304°
近地点 1166.624km 1166.686km
远地点 1169.196km 1169.142km
周期 108.727分钟 108.727分钟
每日圈数 13.244134 13.244123
Detailed Information
使用方式:
暂无
2D Orbit Map
3D Orbit Map
Orbit Altitude Analysis Chart
Orbit Inclination Analysis Chart
Orbit Comprehensive Analysis Chart
View Comprehensive Chart
Miss Distance Evolution Trend with All Objects Subscribe to Flight Safety Assessment
Collision Probability Evolution Trend with All Objects Subscribe to Flight Safety Assessment